Wind_Speed
20 20 20 20 20 20 20 19 19 19 19 19 19 19 19 19 19 19 19 19 19 19 18 18 18 18 18 18 19 19 20 20 20 20 20 20 21 21 20 21 21 22 22 23 23 23 23 23 24 25 25 26 26 26 26 26 27 26 26 25 25 27 26 25 25 25 24 24 25 24 24 22 22 23 22 21 22 23 20 20 22 20 18 18 20 21 20 19
23 23 23 23 23 23 23 22 22 22 22 22 21 21 21 21 21 21 21 21 21 21 21 21 21 21 21 21 21 21 22 23 23 23 23 23 23 24 23 24 24 24 25 25 25 25 25 25 26 27 27 27 28 28 27 28 29 28 28 26 26 29 28 27 28 28 27 26 27 27 27 25 24 25 25 23 24 25 22 23 26 24 21 20 20 22 22 22
26 26 26 26 26 26 26 25 25 25 25 24 24 24 24 24 24 24 24 24 24 24 24 24 23 23 23 23 23 23 23 24 25 25 24 25 25 26 26 26 26 26 27 27 27 27 27 27 28 28 29 29 29 30 29 30 30 29 29 27 27 31 28 29 31 29 29 29 28 29 28 27 27 27 26 26 26 25 25 27 28 26 25 23 21 22 23 24
29 29 29 29 29 29 28 28 28 28 28 27 27 27 27 27 26 26 26 26 26 26 25 25 25 25 24 24 23 23 23 25 26 25 25 26 26 27 27 27 27 27 27 28 28 28 28 28 28 29 29 30 31 31 30 31 32 30 30 28 29 32 29 30 33 31 31 31 30 31 30 29 29 28 27 28 27 25 26 27 28 28 28 26 24 21 23 25
32 32 32 32 32 32 31 31 31 31 30 30 30 30 30 29 29 29 28 28 27 27 27 26 26 25 25 24 24 23 24 26 27 26 26 26 26 26 26 26 26 26 26 27 28 28 28 28 28 28 29 30 31 31 31 33 33 31 29 29 30 32 30 30 34 33 33 33 32 32 32 30 30 29 29 29 28 25 26 28 29 30 30 28 26 24 23 26
35 35 35 34 34 34 34 34 33 33 33 32 32 32 32 31 30 30 29 29 28 28 28 27 27 26 26 25 24 23 23 26 27 26 26 26 25 25 25 25 25 25 26 27 28 28 28 28 28 28 29 30 30 31 32 33 34 31 29 29 31 33 31 30 33 34 34 34 33 34 33 31 31 31 30 29 28 27 28 31 31 30 31 30 28 27 26 27
37 37 37 36 36 36 35 35 34 34 34 33 33 32 32 31 31 30 29 29 28 28 28 28 28 27 26 25 24 22 21 26 28 26 26 26 25 26 26 26 26 27 27 28 28 29 30 30 30 31 31 31 31 31 33 34 35 33 29 29 32 33 32 30 32 33 34 34 34 36 34 32 33 33 30 27 27 28 30 32 31 30 31 31 29 29 28 28
38 38 38 37 37 36 36 35 34 34 33 33 33 32 32 31 31 31 31 30 30 29 29 29 28 27 27 25 24 21 21 28 30 28 28 28 28 29 29 29 29 29 29 29 29 30 31 32 33 35 35 33 33 33 33 35 35 33 31 30 31 32 31 30 31 31 34 34 35 36 34 32 35 35 29 23 24 28 32 32 30 31 31 30 29 30 30 30
36 37 37 36 36 35 35 34 33 33 33 33 32 32 32 32 32 32 32 31 31 31 30 31 30 29 28 27 26 22 24 32 33 31 32 32 32 32 32 32 31 31 31 30 31 32 34 35 36 38 38 36 36 34 35 36 35 34 33 32 31 30 29 29 29 30 33 33 35 37 36 34 36 36 26 18 22 29 32 33 31 30 29 29 29 29 30 30
34 34 34 34 34 34 33 33 33 33 33 33 33 33 33 33 33 32 32 32 32 32 32 32 32 32 31 30 29 25 28 35 35 34 35 35 35 34 34 34 33 33 33 32 33 35 36 37 38 39 39 38 37 36 36 36 36 35 35 33 31 30 28 27 28 29 31 32 34 38 39 36 36 35 23 14 22 30 33 33 31 30 28 28 28 27 28 28
33 33 33 33 33 33 32 33 33 33 33 33 34 34 34 34 33 33 33 33 33 33 34 35 35 35 35 34 31 27 31 36 35 36 37 37 37 37 37 36 35 36 36 35 36 37 37 38 39 39 40 39 36 36 36 36 37 36 36 35 30 31 29 24 26 28 31 33 34 40 42 39 36 31 22 17 24 31 34 32 30 30 29 28 28 28 28 27
34 34 34 34 34 34 34 34 34 34 34 35 35 36 36 36 36 35 35 35 36 36 36 38 38 38 39 35 31 32 34 35 36 38 39 40 40 39 39 38 37 38 37 37 38 38 39 39 40 41 41 40 36 35 35 34 37 37 37 37 31 32 30 23 25 29 32 35 35 41 46 42 34 27 22 21 27 32 34 32 30 30 29 29 28 29 29 28
36 37 36 36 37 36 36 36 36 37 37 37 38 39 39 39 39 38 38 39 39 39 40 41 42 42 42 36 31 34 36 36 38 40 42 43 41 40 40 39 39 39 39 39 39 40 40 41 43 43 42 41 37 36 36 35 37 36 37 38 33 32 28 21 26 31 33 37 37 43 50 46 34 25 23 25 29 33 35 32 31 31 30 29 28 28 29 29
39 39 39 39 39 39 39 39 39 39 39 40 40 41 41 41 41 41 41 41 41 42 41 42 43 43 44 37 31 34 36 37 39 40 43 43 42 41 40 40 40 40 41 40 40 41 42 43 45 45 43 42 39 37 38 38 38 36 37 38 35 36 31 24 29 34 34 37 39 45 52 49 37 27 24 28 31 33 35 33 32 33 31 30 29 28 28 28
42 41 41 41 41 41 41 41 41 41 41 42 42 43 43 43 43 42 42 42 42 43 43 43 43 44 45 37 31 33 35 37 40 42 43 43 42 42 41 41 41 41 41 41 41 42 43 45 46 47 45 42 40 39 41 43 40 37 40 40 37 41 41 34 32 34 35 37 40 46 52 51 42 32 27 30 34 35 37 36 33 34 32 32 32 30 28 27
44 44 44 43 43 43 43 43 43 43 43 44 44 44 44 44 44 44 44 43 43 43 43 44 43 45 46 40 34 34 35 38 40 42 43 43 43 42 41 43 43 42 43 42 43 43 44 46 47 47 45 42 39 39 44 47 42 37 42 45 43 45 48 43 36 32 35 39 42 46 51 52 46 37 32 32 34 37 39 38 35 34 33 33 33 31 29 28
46 46 46 46 46 45 45 45 45 45 45 45 45 45 46 46 45 45 44 44 44 44 45 45 45 47 48 44 40 38 37 39 40 40 40 41 41 42 43 44 44 44 44 44 43 43 44 47 48 47 45 43 39 39 47 50 43 39 44 49 50 50 50 49 41 35 36 41 44 47 50 50 45 41 37 35 36 40 42 40 38 36 34 33 33 33 31 30
48 48 48 48 47 47 47 46 46 46 46 46 46 46 47 47 46 46 45 45 45 46 47 47 47 50 50 47 45 42 41 41 40 40 39 38 39 40 42 44 45 45 45 45 45 44 46 48 49 49 47 43 38 40 48 50 45 45 48 51 54 53 51 51 46 41 40 43 46 49 50 48 45 42 39 36 36 40 43 42 40 38 37 35 35 35 34 33
50 49 49 49 49 49 48 48 48 47 47 48 48 47 47 48 48 48 47 47 47 47 49 49 49 51 52 49 48 47 46 43 42 40 38 37 37 39 41 43 44 46 47 47 46 47 48 50 52 52 47 42 39 42 48 49 48 50 51 53 54 54 53 50 48 44 45 49 49 49 50 48 45 43 38 35 34 36 37 38 38 38 37 37 37 37 35 35
50 50 50 50 50 50 50 50 50 49 49 49 49 49 49 49 50 50 50 49 49 49 50 51 51 51 51 50 50 51 49 46 44 40 38 37 38 39 40 41 43 45 46 46 47 49 50 52 54 51 45 41 42 45 48 48 49 52 53 55 55 55 54 49 48 46 46 54 54 50 50 47 44 43 39 37 36 34 31 32 34 35 36 37 38 37 35 35
51 51 51 51 51 51 51 51 51 51 51 50 51 51 51 51 52 52 52 52 51 52 52 52 53 52 50 51 52 52 51 48 45 42 40 39 40 42 42 42 43 44 44 45 49 50 50 53 53 48 43 43 46 47 48 49 51 54 55 56 55 55 53 50 49 46 47 55 56 52 51 47 44 44 42 40 38 36 32 29 29 30 33 35 34 34 34 35
52 52 52 52 52 53 53 53 53 53 52 52 52 53 53 54 54 55 56 56 54 53 54 53 54 54 52 52 53 53 52 50 46 44 43 44 44 45 45 45 45 44 44 46 47 47 50 53 51 47 46 47 48 48 50 51 53 55 55 56 56 54 53 52 50 47 50 56 56 55 55 51 47 45 43 41 38 37 34 30 27 27 29 30 30 30 32 33
53 52 53 53 54 54 54 54 54 54 54 54 54 54 55 56 56 57 59 60 57 55 54 54 55 55 55 55 54 53 53 51 48 47 47 48 48 47 47 46 46 46 46 45 44 46 50 51 48 47 47 48 49 50 51 53 54 55 55 56 57 54 53 55 53 51 53 55 55 56 56 55 53 48 44 42 37 35 35 34 31 28 28 28 28 30 32 32
55 54 55 55 55 56 56 56 55 55 56 56 56 56 57 57 58 59 60 62 62 58 55 55 56 57 56 56 55 53 52 51 51 50 49 50 50 49 48 47 47 47 45 43 44 47 50 49 47 46 46 47 49 50 51 52 53 53 53 55 55 53 52 55 56 55 55 55 54 55 56 56 55 51 45 39 35 35 36 37 34 31 30 29 29 32 33 33
56 56 57 58 58 58 58 58 57 57 57 57 58 58 58 58 59 60 61 63 64 61 59 57 57 58 57 55 54 53 53 52 52 52 51 50 49 49 48 47 46 44 42 42 44 47 48 45 44 45 46 46 48 49 49 49 51 52 52 52 52 52 53 54 55 56 56 56 55 56 57 54 53 54 47 38 35 36 38 38 35 31 33 33 31 32 34 33
54 55 56 57 59 60 60 60 60 59 59 59 59 59 59 59 59 60 61 63 65 64 63 62 59 58 57 55 54 54 54 53 52 51 49 48 47 47 47 45 44 42 41 42 44 46 45 41 42 44 46 47 49 48 46 46 50 52 51 50 48 50 52 53 53 55 56 57 57 58 59 55 52 54 51 44 41 41 40 39 37 33 34 36 32 30 32 33
51 52 53 54 55 56 58 59 61 61 60 60 60 60 60 60 60 61 60 64 66 65 66 66 63 59 57 56 56 56 55 54 52 51 49 48 47 47 47 45 42 41 42 43 44 45 43 41 42 44 46 48 49 48 45 47 52 53 51 50 50 50 51 52 54 55 56 57 58 59 62 60 54 52 55 53 50 49 46 42 39 36 33 35 34 30 31 33
47 47 48 49 50 51 51 53 56 57 59 60 60 61 61 61 61 61 60 65 67 66 67 67 64 60 57 56 57 57 56 55 54 53 50 49 49 47 47 46 44 44 44 44 45 44 43 43 44 45 47 48 48 48 48 50 52 52 52 53 54 53 53 53 54 56 57 58 57 58 61 61 56 52 57 60 58 58 53 46 42 38 34 33 35 35 32 32
45 43 43 44 45 47 47 48 50 51 52 55 56 57 58 59 60 59 61 65 67 67 67 66 64 62 59 57 57 57 57 56 56 55 52 51 49 47 47 46 47 47 46 47 47 45 44 45 46 48 49 48 48 49 51 51 52 52 53 54 55 56 56 56 57 57 59 59 57 58 60 61 58 53 56 61 62 61 58 53 49 45 41 38 38 38 36 34
44 43 44 44 44 45 47 48 49 49 49 51 52 53 53 54 54 55 59 63 65 65 64 63 64 62 59 57 56 57 57 56 55 54 52 51 49 48 48 48 48 48 48 49 49 47 46 47 48 49 49 49 49 50 50 51 51 52 53 55 56 58 58 59 59 59 62 60 57 59 61 60 59 55 56 60 62 63 62 59 57 53 50 47 43 41 40 39
49 49 50 50 49 49 49 51 52 51 51 50 50 50 50 49 49 51 56 58 59 59 58 60 62 60 58 56 54 55 55 54 54 53 52 51 51 51 50 50 50 50 50 51 50 50 50 50 51 51 51 51 51 51 51 50 50 50 52 53 56 58 59 61 62 62 65 62 58 61 62 60 59 57 58 60 62 64 64 63 62 60 57 54 51 48 44 41
55 55 55 56 55 54 53 53 54 53 53 51 51 52 51 49 49 51 53 53 54 56 54 56 59 59 59 58 55 55 55 55 54 53 52 52 51 52 51 52 52 53 54 54 54 55 55 55 55 55 54 54 54 55 54 53 52 51 52 53 54 56 57 60 62 62 64 62 59 62 63 62 63 60 60 61 61 61 62 64 65 64 61 58 57 57 55 49
59 59 59 60 60 59 57 55 54 53 53 53 54 55 56 55 53 53 53 52 53 54 52 52 54 56 57 58 57 56 56 56 55 55 54 53 53 52 52 53 54 56 57 58 59 61 61 59 59 59 57 56 56 56 55 55 55 55 55 54 53 54 57 60 60 60 61 60 59 60 62 66 67 64 62 61 60 60 61 63 65 66 65 64 62 60 61 60
59 60 60 61 61 61 58 54 53 54 55 56 57 58 61 60 56 55 56 56 57 57 55 55 55 56 57 57 58 58 58 59 59 59 59 59 58 57 57 57 57 58 59 60 62 64 64 63 62 62 61 59 59 57 56 56 58 59 58 56 56 56 56 55 54 55 57 57 57 60 64 68 69 66 64 63 62 63 64 64 65 66 66 68 68 65 64 64
59 59 59 60 60 59 57 55 55 56 58 60 61 63 64 62 58 58 59 60 61 62 61 60 60 61 61 61 61 61 62 63 64 64 64 64 63 62 62 61 59 59 60 62 64 65 67 67 63 63 63 61 59 59 58 58 59 60 60 60 60 57 52 52 53 53 53 56 60 65 71 72 69 67 67 67 67 66 67 68 68 68 68 68 68 66 66 65
59 60 60 59 58 56 56 56 56 57 59 60 62 64 63 61 61 62 62 63 64 65 65 64 63 63 64 64 64 63 63 65 65 66 67 67 67 65 64 63 61 62 63 65 65 65 68 68 63 61 62 59 57 55 55 56 57 58 59 60 60 58 56 58 60 58 57 61 65 67 72 73 70 69 67 66 68 68 69 70 70 70 71 71 67 62 62 64
59 60 60 59 59 58 59 59 58 58 60 62 65 65 63 61 62 63 64 64 65 65 65 65 65 64 64 65 65 65 67 68 68 69 69 69 70 69 68 66 66 67 66 66 66 66 68 69 65 61 62 62 59 56 56 56 55 56 57 55 55 59 60 61 64 65 64 68 68 67 68 68 68 68 66 66 68 68 69 70 71 73 73 71 64 58 58 61
62 62 62 61 61 62 62 62 63 62 64 67 69 69 67 65 63 63 63 64 64 65 66 66 67 67 67 67 67 68 69 71 71 71 71 72 73 74 73 70 70 69 67 67 68 68 66 67 66 63 64 68 67 66 66 65 63 61 60 59 59 64 65 65 70 72 70 71 72 71 70 68 68 66 64 64 66 68 69 69 70 71 69 62 56 54 55 57
65 66 65 64 64 64 64 64 65 66 68 71 72 71 70 69 67 67 67 66 65 67 68 68 69 69 69 69 69 68 68 69 70 71 72 73 75 76 76 74 72 71 69 68 69 68 65 67 69 65 66 71 72 71 70 69 66 66 68 69 69 70 71 71 72 73 71 72 72 72 72 72 71 68 66 66 65 67 69 69 68 65 59 54 54 54 53 51
67 68 68 66 66 65 65 66 67 68 71 73 73 73 73 72 71 69 70 70 70 70 70 70 70 71 71 70 70 70 70 71 71 71 72 74 75 75 75 74 72 71 70 70 71 71 68 68 68 64 63 69 71 71 71 71 71 73 75 76 74 72 71 69 69 68 67 68 70 70 72 72 67 64 68 70 67 65 66 67 66 62 58 57 56 53 49 45
67 69 68 67 66 66 66 67 69 70 72 73 73 73 74 74 72 71 71 72 73 72 72 72 71 72 72 72 72 72 73 74 74 74 75 75 74 74 74 72 70 69 70 70 71 71 68 66 69 69 69 71 72 72 73 74 75 77 78 76 74 72 68 66 68 68 65 66 68 70 73 70 59 54 61 66 65 65 65 65 66 64 63 61 54 48 45 44
69 69 67 66 67 66 67 69 70 71 74 75 73 72 72 72 73 72 73 73 73 73 74 73 73 73 72 72 72 72 73 75 75 75 75 75 73 72 71 69 68 68 69 70 71 70 70 71 75 78 77 75 73 72 73 75 75 75 76 75 73 72 69 68 70 68 64 64 64 66 71 69 60 54 56 59 59 59 60 62 65 65 64 60 51 46 48 51
71 70 68 68 68 67 68 71 71 72 73 73 71 70 71 72 72 71 72 73 73 72 73 73 72 72 72 71 71 71 71 73 74 73 73 73 72 70 67 66 67 68 69 71 71 71 71 74 76 78 79 78 76 73 73 75 75 75 74 71 70 70 68 69 69 67 66 66 63 65 71 72 67 61 59 55 51 51 55 57 60 62 62 58 53 51 55 60
72 71 70 69 70 70 71 72 72 72 71 70 70 70 70 71 70 69 69 71 71 71 71 71 71 71 70 69 69 69 69 71 73 72 71 72 71 68 66 66 67 68 69 71 72 73 74 76 76 78 79 80 78 76 74 73 74 75 73 68 68 68 67 68 68 69 73 73 69 72 78 78 73 69 64 56 49 48 50 51 55 61 60 57 57 62 67 69
72 72 71 70 71 71 71 70 70 71 71 71 71 70 69 70 69 67 67 69 70 70 71 72 71 70 70 69 70 70 70 71 73 72 70 71 70 68 66 67 68 69 70 72 73 74 76 76 76 76 79 81 81 78 75 73 73 75 74 73 72 72 70 70 68 70 76 77 75 80 84 81 76 74 72 67 63 60 55 50 55 62 62 61 67 75 78 77
70 71 70 70 71 72 71 69 69 71 71 70 71 70 69 70 69 67 68 69 70 70 71 72 72 71 71 71 71 72 71 71 72 73 72 71 71 71 70 69 70 71 71 72 72 73 74 75 76 77 78 80 80 79 76 74 75 76 76 75 74 73 72 70 69 70 73 75 77 79 80 79 77 74 72 71 69 65 59 55 59 66 70 73 79 84 85 84
70 69 69 69 71 72 72 70 70 70 69 69 70 71 69 69 69 68 69 70 70 70 71 72 71 71 72 72 72 73 73 71 72 73 73 72 72 71 71 70 71 71 70 71 72 73 74 76 77 77 78 78 77 77 75 74 74 75 74 74 72 72 72 71 71 73 71 73 78 76 73 75 74 69 67 67 66 64 64 64 68 74 80 84 88 90 89 88
70 69 69 70 71 71 71 71 70 70 69 69 70 71 70 70 70 70 70 70 70 70 71 73 72 71 71 71 72 74 73 72 73 72 72 72 72 71 70 69 69 69 68 69 71 72 75 77 76 77 79 77 74 73 72 71 71 71 69 69 68 68 68 69 72 73 70 74 78 74 72 74 72 69 70 72 72 72 73 76 78 80 83 86 87 87 85 84
70 69 69 70 70 69 69 70 69 70 70 70 70 71 70 70 70 69 69 70 70 70 70 72 72 71 70 70 71 72 72 71 72 71 71 71 71 70 70 68 68 68 68 67 68 70 73 76 77 77 77 75 71 70 69 69 69 68 66 66 66 66 67 68 69 68 68 72 74 72 73 73 70 69 72 73 73 73 73 74 74 73 73 74 76 78 78 78
70 69 69 69 69 68 68 69 69 69 70 69 70 71 70 69 69 67 68 69 70 69 69 71 72 71 70 70 70 71 70 70 70 70 70 70 69 69 69 68 67 67 66 65 64 64 66 70 70 69 69 68 66 65 65 65 67 68 69 69 68 70 71 70 69 66 65 67 68 68 70 71 70 71 70 67 66 66 66 65 64 64 64 66 68 70 72 73
71 71 71 71 70 69 69 69 69 70 70 70 70 70 69 69 69 68 68 69 68 68 69 70 71 71 70 70 70 70 69 68 68 68 68 68 68 67 67 66 63 62 60 58 58 58 58 59 60 60 64 65 63 64 68 70 72 74 74 72 70 71 73 73 72 71 70 70 69 68 70 73 74 74 71 69 68 67 67 66 66 66 67 68 69 68 67 68
71 72 73 73 73 71 70 71 70 71 72 70 69 70 69 69 69 69 69 69 69 69 69 69 70 71 70 69 68 68 68 68 67 66 66 66 65 64 63 61 58 57 55 53 53 55 55 57 60 63 70 72 70 72 75 77 80 81 78 74 72 72 73 72 71 71 72 74 76 76 76 77 77 77 75 74 73 71 70 70 71 71 70 69 69 68 68 69
Wind_Direction
258 260 262 265 267 269 270 271 273 274 276 278 279 280 281 282 282 282 282 283 283 283 283 283 283 284 286 287 288 290 291 292 292 293 295 296 296 296 297 297 297 298 299 299 299 301 301 302 301 301 302 302 301 300 300 299 298 299 299 301 300 297 300 301 299 299 298 297 297 297 296 297 294 295 299 301 300 300 300 294 295 300 300 298 299 301 302 302
259 261 263 265 267 269 270 271 272 273 274 275 276 277 278 279 280 281 281 281 282 282 282 282 282 283 284 284 286 287 288 290 290 291 293 294 294 294 295 296 296 296 297 297 298 298 299 299 299 299 299 299 298 297 297 295 295 296 297 299 294 292 298 298 295 296 296 294 294 293 293 293 290 291 296 296 296 297 294 289 293 298 297 294 292 294 296 296
259 261 263 265 267 268 270 271 272 273 273 274 274 275 275 276 277 278 278 279 279 280 280 281 281 281 282 283 284 285 287 288 288 290 291 291 292 292 293 294 295 295 296 295 295 296 296 297 297 297 297 296 296 295 295 293 292 294 296 296 291 291 296 295 293 295 295 294 293 292 290 290 289 291 293 292 294 293 289 289 293 296 294 290 289 289 290 290
260 262 263 265 267 268 269 271 272 273 273 274 274 274 274 274 275 275 276 276 276 276 277 277 278 279 280 281 283 284 286 287 287 289 289 289 289 290 291 291 292 293 293 293 294 294 294 295 296 295 295 295 294 294 294 292 291 293 296 294 290 290 294 293 292 293 293 293 292 290 288 288 288 290 291 291 295 291 286 290 292 292 291 289 288 284 281 283
262 263 264 265 267 268 269 271 272 273 274 274 274 274 274 274 274 274 274 274 274 274 274 275 276 276 277 279 281 283 285 286 286 287 287 287 288 289 289 290 290 291 291 292 293 293 294 294 295 295 295 294 294 295 294 291 291 294 295 293 290 289 292 293 291 292 292 291 291 288 286 287 287 288 289 291 295 292 286 288 289 290 289 288 287 281 275 275
264 264 265 266 267 268 269 271 272 273 274 274 274 274 274 274 274 273 273 273 273 273 273 274 274 275 276 277 278 280 284 285 283 283 285 286 287 288 289 290 291 292 292 293 293 295 295 296 296 295 294 294 296 296 294 293 294 296 295 293 289 288 292 292 290 293 293 291 290 287 286 287 287 286 288 293 297 292 285 285 287 288 288 289 288 283 277 272
264 264 265 266 266 268 269 270 271 272 272 272 273 273 273 273 273 273 273 273 273 273 273 273 273 273 274 275 276 278 283 282 280 281 283 284 285 286 287 288 289 291 292 292 294 295 296 298 298 294 293 295 296 296 296 295 296 299 299 293 289 291 295 292 291 293 293 292 290 287 287 287 286 286 289 297 299 291 284 284 288 288 288 290 289 285 280 274
263 264 264 265 266 267 268 269 269 270 270 270 270 271 271 272 272 272 273 273 273 273 273 273 273 273 272 274 275 279 283 280 280 282 283 284 285 285 286 286 288 289 290 291 293 294 296 297 295 293 294 295 294 295 295 294 295 298 297 291 291 293 294 292 293 294 292 292 290 288 287 286 285 286 294 304 298 287 283 285 288 289 289 289 288 285 282 278
262 262 263 264 265 266 266 267 267 267 268 268 268 269 270 270 270 271 271 272 272 271 271 271 272 272 273 274 275 281 283 278 280 283 284 285 284 284 285 286 287 288 289 290 292 293 295 294 293 293 294 293 292 293 291 291 294 295 293 291 293 293 292 294 296 295 293 291 288 285 283 282 283 288 301 311 292 282 282 286 288 290 291 289 287 285 283 281
260 261 262 262 263 264 264 265 266 266 267 268 268 269 269 269 270 270 270 270 270 270 269 270 271 272 273 274 276 282 280 277 281 284 284 284 282 282 283 284 286 287 287 288 289 290 291 292 292 293 292 292 291 290 289 290 292 291 290 291 292 292 292 296 298 296 292 288 285 283 280 280 284 291 304 304 283 280 282 286 289 291 292 290 289 289 289 287
260 260 261 261 262 262 263 264 265 266 267 268 268 269 269 270 270 270 270 271 271 271 270 271 271 272 273 274 278 280 277 278 282 282 282 281 280 281 281 282 283 284 285 286 286 287 288 289 290 290 290 291 291 291 290 290 290 289 289 289 291 291 291 297 297 292 285 283 283 282 280 281 287 296 305 292 278 278 280 284 289 291 291 290 292 295 296 294
260 261 261 261 262 262 262 263 265 266 267 268 269 270 270 270 271 271 271 272 272 272 273 273 273 274 273 275 279 278 277 279 281 281 280 279 279 280 280 281 280 280 281 281 282 283 285 286 286 286 287 288 291 292 292 292 289 289 289 289 290 290 293 297 290 283 281 281 283 283 281 283 290 301 304 288 276 276 278 283 287 286 287 289 292 296 297 297
262 262 262 263 263 263 263 264 265 266 267 268 269 270 270 271 271 272 272 272 273 273 274 274 275 275 274 276 278 278 278 279 278 278 278 278 279 280 280 280 279 278 278 278 278 279 281 282 283 283 284 286 290 291 291 291 290 291 291 290 293 292 293 292 280 277 280 283 285 284 284 286 292 297 294 285 278 276 277 282 284 283 284 285 287 291 294 295
264 264 264 265 265 266 266 266 266 267 267 268 269 270 270 271 271 272 272 272 273 273 273 274 274 274 274 275 278 277 278 279 277 276 276 278 279 279 280 279 279 278 277 276 276 276 278 280 280 281 282 284 287 289 290 289 289 292 291 293 298 294 289 284 277 278 281 285 286 284 284 286 289 289 287 284 279 277 277 279 281 282 282 282 282 285 289 291
265 265 265 266 266 267 267 267 267 268 268 268 268 269 270 270 271 271 271 271 272 272 273 273 273 274 274 274 277 278 278 278 277 277 277 278 279 279 280 280 278 277 276 276 275 275 276 277 278 279 280 282 285 288 289 287 287 293 295 295 296 290 286 282 279 285 290 289 286 283 283 283 284 283 281 278 277 277 277 277 277 279 281 280 280 282 283 284
266 266 266 266 267 267 268 268 268 268 268 268 268 269 269 269 270 270 270 271 271 271 272 273 273 274 274 275 276 277 278 278 277 277 278 278 278 279 280 279 278 277 276 275 275 275 275 275 276 277 279 280 283 287 287 285 289 296 295 292 289 285 285 286 286 292 296 292 286 283 282 281 283 283 278 273 273 274 273 274 275 277 279 280 282 281 279 278
266 266 266 266 266 267 267 268 268 268 268 268 268 269 269 269 269 269 270 270 270 271 272 273 274 274 275 277 278 278 279 277 276 277 278 278 279 279 278 278 277 277 276 276 275 275 275 275 275 276 276 278 281 286 285 285 291 292 288 286 285 285 288 290 293 296 295 290 286 283 282 282 284 283 279 273 270 270 272 274 275 278 280 282 283 280 276 275
266 266 266 266 267 267 267 267 268 268 268 268 268 268 268 269 269 269 269 270 271 272 273 274 275 275 276 278 279 279 278 277 276 276 277 279 280 279 278 277 277 277 276 275 274 275 274 274 274 274 274 277 281 283 282 284 288 286 283 283 284 287 289 291 295 299 296 289 285 284 284 285 285 282 279 277 273 272 275 278 280 282 282 282 280 277 274 274
266 266 266 266 267 267 267 267 267 267 268 268 268 267 268 268 269 269 269 270 271 273 274 275 275 276 277 279 279 279 278 277 276 275 277 279 279 278 277 277 276 275 274 273 274 273 272 272 272 273 276 281 282 278 277 280 283 282 282 283 284 287 288 291 296 299 297 290 284 283 284 284 286 285 285 285 282 279 281 284 285 283 280 278 275 274 274 274
265 266 267 267 267 267 267 267 267 268 268 268 268 268 267 267 268 269 269 270 271 273 274 276 276 276 278 280 280 279 279 279 278 276 277 277 277 277 276 276 275 274 273 273 272 271 271 272 272 274 279 282 279 275 276 278 280 280 281 282 284 286 288 293 294 295 296 290 284 284 283 283 285 287 289 289 287 287 289 290 286 283 279 275 273 273 274 274
265 266 266 267 267 267 268 268 268 268 268 268 269 268 268 268 268 268 268 269 271 273 274 276 278 278 279 280 280 280 280 279 279 277 276 276 275 275 274 274 273 273 274 272 270 270 271 272 273 276 278 276 274 274 276 276 277 278 279 281 283 285 288 290 290 293 293 286 284 286 284 282 284 285 287 288 290 293 294 291 288 285 280 278 278 278 276 273
264 265 266 266 267 267 267 268 269 269 269 269 269 270 270 269 269 269 269 269 270 273 276 277 278 278 280 280 279 279 280 280 280 278 276 275 274 274 273 271 272 273 271 270 271 273 273 273 274 275 273 272 272 273 274 274 275 276 278 280 281 284 286 286 287 288 286 283 286 288 285 284 283 283 285 287 290 293 293 292 288 283 282 285 288 284 278 273
265 265 266 266 267 267 267 268 268 269 269 270 270 270 270 271 271 271 272 272 272 273 275 277 277 277 278 279 279 279 280 280 280 278 277 276 275 275 272 271 271 270 270 272 275 275 274 274 274 273 272 272 273 272 272 272 273 275 277 279 280 283 285 285 285 283 281 283 286 288 287 285 284 283 283 285 288 290 290 289 287 286 287 290 290 286 282 277
265 266 266 267 267 267 268 268 268 269 269 269 270 270 271 272 272 273 274 274 274 274 274 275 274 275 276 278 279 280 280 280 279 278 279 278 278 276 274 272 270 269 271 274 272 271 271 274 275 274 274 274 273 272 271 272 273 275 277 277 279 281 282 282 282 283 283 283 285 287 286 284 285 285 281 283 287 285 283 283 286 290 292 289 286 286 285 283
264 265 266 266 266 267 267 268 268 269 269 270 270 271 271 272 273 274 275 275 275 275 275 273 272 273 275 277 279 279 279 278 278 279 279 279 278 276 275 273 271 270 272 271 269 267 268 272 275 276 275 274 272 272 272 272 274 276 276 275 277 279 279 279 281 283 284 284 285 285 284 283 285 285 283 285 285 281 279 280 284 290 291 288 285 284 285 284
265 265 266 266 267 267 266 267 267 268 268 269 270 271 272 273 274 274 275 276 276 275 276 274 272 273 274 276 277 277 277 277 277 278 279 278 277 275 273 271 270 270 270 269 267 266 269 273 274 274 274 274 273 274 274 274 274 276 276 275 276 276 276 277 279 280 282 284 284 284 283 283 283 284 287 289 286 281 278 280 286 289 289 290 288 283 281 280
266 267 268 268 268 268 268 267 267 267 268 269 270 271 272 273 273 274 275 276 275 275 275 275 275 275 276 275 274 275 276 276 276 276 277 277 276 274 272 270 269 268 268 268 267 268 272 273 272 271 271 271 273 274 274 273 273 275 276 275 274 273 273 274 275 276 278 280 282 282 282 283 285 288 292 293 289 285 283 283 287 288 285 287 287 284 281 280
269 270 271 271 270 270 271 271 270 269 269 269 270 271 271 272 272 274 275 275 274 274 275 276 278 278 278 275 272 272 273 274 274 275 275 275 274 273 271 269 268 267 267 268 268 271 273 272 271 270 269 269 271 272 271 271 273 275 274 274 274 273 272 272 272 274 275 277 280 280 280 282 287 293 295 293 290 289 289 290 290 289 284 281 282 284 283 282
270 270 271 273 273 272 272 273 273 273 272 272 271 271 271 271 272 273 273 272 273 274 276 278 279 278 277 275 272 271 271 270 271 273 273 273 272 270 268 267 267 268 269 270 270 272 273 272 271 270 270 271 270 269 269 270 272 273 272 272 273 273 273 273 273 273 272 273 278 280 279 280 285 292 292 290 290 290 291 293 293 292 288 283 281 281 280 279
268 269 272 275 276 274 274 275 276 277 276 274 272 271 271 271 272 271 270 271 273 275 278 278 278 277 277 275 273 271 270 269 268 270 270 271 270 269 268 268 269 270 271 272 272 273 273 272 272 273 274 273 271 270 270 270 271 271 271 271 271 271 272 272 271 271 270 271 277 278 276 278 283 288 288 287 289 290 291 293 294 293 291 288 285 280 277 278
269 272 274 275 276 275 275 275 276 277 276 275 274 272 271 272 270 269 271 274 276 276 276 276 276 276 275 274 273 272 272 270 269 268 268 268 269 269 270 271 273 272 272 273 275 275 274 275 277 278 278 276 275 275 275 275 275 275 274 272 271 270 270 270 270 270 269 272 277 276 275 276 279 282 283 284 286 288 292 293 293 292 292 291 288 285 281 277
270 272 273 274 275 275 274 274 274 275 274 274 273 271 270 268 266 268 273 275 275 274 274 274 273 274 273 273 274 274 273 272 271 270 268 267 266 267 269 271 275 276 275 276 278 277 275 276 278 279 278 278 278 278 278 278 279 279 278 277 275 274 273 272 271 271 271 273 276 277 277 275 274 276 277 279 282 285 288 290 290 291 291 290 289 290 289 285
271 272 273 274 275 275 275 275 276 276 274 273 272 270 268 265 265 269 271 270 270 272 273 272 273 273 273 274 275 274 274 274 273 273 272 270 268 267 268 271 276 279 278 278 278 277 275 275 277 279 279 278 279 280 280 279 279 278 278 277 276 276 276 274 274 275 276 276 275 274 273 271 272 274 274 275 278 280 281 283 286 288 289 290 289 290 291 292
272 272 273 274 274 275 276 276 276 276 274 272 270 268 266 266 269 271 270 268 268 269 269 270 271 272 273 273 274 274 275 274 274 275 275 274 272 271 271 274 276 278 279 279 277 277 276 272 273 279 281 279 280 280 280 279 277 276 277 276 274 275 277 277 278 279 278 276 272 269 268 269 273 276 276 276 277 277 278 279 281 282 284 287 289 291 293 293
272 272 272 273 274 274 273 272 270 271 270 269 267 263 263 268 272 271 269 268 267 267 267 267 267 268 269 270 271 271 272 273 274 274 274 274 274 274 275 276 278 279 281 282 281 280 279 275 274 280 284 283 281 280 279 278 276 276 275 274 275 277 277 277 276 275 275 273 269 269 270 272 274 275 276 277 278 278 279 279 280 280 281 282 285 289 293 295
269 270 270 271 272 271 270 269 268 268 268 268 267 264 265 269 269 268 267 266 266 266 265 265 265 265 266 266 267 268 269 271 272 272 273 273 274 274 275 276 278 279 280 283 283 282 282 281 280 283 286 285 284 281 278 277 276 275 274 275 277 276 274 274 274 273 274 273 270 269 271 273 275 274 275 276 278 279 280 280 280 281 281 282 284 288 291 292
268 268 269 269 270 270 270 271 271 270 269 269 268 266 266 267 267 268 268 267 266 265 264 264 264 263 263 263 263 265 267 269 270 271 272 273 273 273 274 275 277 278 280 282 283 283 283 283 281 280 282 281 279 278 276 275 274 273 274 275 275 273 271 272 275 276 276 276 275 272 271 272 272 274 276 279 281 283 283 282 281 279 279 282 285 287 286 285
270 270 270 270 271 272 272 272 272 271 271 270 268 265 264 266 268 270 271 270 270 269 268 267 266 266 265 264 264 265 267 269 270 271 272 273 274 273 273 276 277 279 281 283 284 284 283 282 278 275 276 275 274 273 273 274 275 275 275 274 272 273 273 273 276 279 279 279 279 278 276 273 271 273 278 282 284 284 283 281 280 279 281 283 283 281 281 282
273 272 271 272 273 273 273 273 273 272 271 271 270 268 267 267 268 269 271 272 272 271 271 270 270 270 269 269 269 268 269 270 271 273 273 274 274 274 275 277 280 282 283 283 283 283 282 282 280 275 272 271 271 271 271 274 277 277 278 278 277 277 278 277 278 279 281 281 281 280 279 277 276 279 281 282 284 283 280 279 278 278 279 278 276 275 277 282
273 273 272 273 274 274 273 273 272 271 271 272 273 273 272 271 269 269 270 271 272 272 272 272 272 272 272 272 272 272 273 273 273 274 274 274 275 276 277 279 281 283 283 283 282 283 282 282 281 277 272 270 271 272 274 276 278 278 279 280 281 281 281 280 279 279 280 280 280 279 277 278 280 282 282 282 282 281 280 278 277 276 275 273 273 273 273 281
274 273 273 273 273 273 273 272 271 271 272 272 273 273 273 273 272 271 271 271 272 272 273 273 273 273 274 274 274 274 274 274 274 274 274 275 276 276 277 279 281 281 281 281 280 281 281 280 279 279 276 273 273 274 276 278 279 280 281 281 282 283 282 281 280 282 283 282 282 279 276 277 275 276 282 283 281 280 278 276 275 273 272 271 271 268 268 278
274 274 275 273 272 272 271 270 271 271 272 272 274 274 274 273 273 272 271 272 273 273 273 274 274 275 275 274 274 274 273 273 273 273 274 275 275 276 278 279 280 280 279 279 278 278 278 278 278 279 279 277 276 275 276 278 280 280 280 282 283 283 283 282 283 285 285 281 279 277 276 275 271 274 281 281 278 275 271 270 271 269 268 266 264 265 270 277
274 274 274 273 272 271 270 269 270 271 272 274 274 273 273 272 272 271 272 273 274 274 274 275 275 275 274 274 274 273 273 273 273 273 274 275 275 276 278 278 277 277 277 277 277 277 277 277 277 278 278 278 277 275 275 277 279 280 280 282 283 282 282 282 282 283 281 277 275 272 271 272 273 278 280 278 274 268 265 266 265 259 258 259 263 270 275 279
273 273 272 272 271 270 270 271 272 272 272 273 272 271 271 271 271 271 272 273 273 274 275 275 274 274 274 274 274 274 274 274 274 274 274 275 276 277 277 276 275 274 275 276 276 276 276 276 277 277 277 277 276 276 275 275 277 278 279 279 279 279 280 278 277 276 275 274 274 272 271 273 278 281 279 276 273 269 267 265 258 252 252 257 266 275 278 279
272 272 272 271 270 270 269 270 271 271 271 271 271 271 271 271 272 272 272 272 272 273 273 273 273 273 273 273 273 273 273 273 274 275 274 275 276 276 275 274 274 274 274 275 275 275 275 275 275 275 275 276 278 278 278 277 275 274 274 275 275 275 276 275 274 272 271 273 274 272 273 277 279 279 279 277 276 275 271 262 254 252 255 260 270 276 278 276
271 271 271 271 270 269 270 270 270 270 270 271 271 270 271 271 272 272 271 271 271 272 272 272 272 272 272 272 273 273 272 272 273 273 274 274 274 275 274 274 273 273 273 273 273 274 274 273 273 274 274 276 278 279 279 278 276 274 274 274 274 274 273 274 273 271 272 275 274 272 275 278 278 279 281 280 279 277 271 260 253 253 258 264 270 274 275 274
270 270 270 269 268 269 270 270 270 270 271 270 270 270 270 271 271 270 270 271 271 271 271 271 271 271 272 272 272 271 271 271 271 272 273 273 273 273 273 273 273 272 272 272 272 272 272 272 273 273 274 275 276 277 277 276 275 274 274 274 273 273 273 273 272 273 275 276 274 275 278 279 279 281 281 279 277 273 268 263 258 257 261 266 270 273 275 275
270 270 269 269 268 269 270 270 270 270 270 270 270 270 270 270 270 271 271 271 270 269 269 270 270 270 271 271 271 271 271 271 271 272 272 273 273 273 272 272 272 272 272 271 272 272 272 272 273 273 274 274 274 274 275 274 274 274 275 274 274 273 273 272 272 274 275 275 275 278 278 277 279 279 277 274 272 270 268 267 264 263 265 268 270 273 275 276
271 271 271 270 270 270 270 270 269 269 269 269 270 270 270 271 271 272 271 270 269 269 269 270 270 269 269 269 270 270 270 271 271 272 272 272 272 273 272 271 271 272 273 272 272 272 272 273 273 273 273 273 272 272 272 273 273 273 273 273 273 273 273 272 273 273 274 274 276 278 277 277 278 275 271 270 269 268 269 269 267 266 266 267 269 272 273 275
272 272 272 272 272 271 271 270 270 270 269 269 269 271 271 272 271 271 270 270 270 270 269 269 269 269 269 268 268 269 270 271 271 272 271 271 271 272 272 271 271 272 272 272 271 271 271 272 272 271 271 270 271 271 272 272 274 274 272 271 272 273 272 271 271 272 273 274 274 273 272 272 271 270 267 266 266 266 267 267 266 263 263 266 268 269 269 270
273 273 272 272 272 272 272 272 271 271 270 270 271 272 272 271 271 270 269 269 269 269 268 268 268 269 269 268 269 270 271 271 271 272 272 271 271 271 272 272 272 271 271 271 270 270 268 268 268 268 268 268 268 271 273 274 275 273 272 272 273 274 273 272 271 271 271 271 270 269 269 269 268 268 267 267 268 270 269 267 265 264 265 265 265 264 263 264
272 272 272 272 272 272 272 272 272 272 272 272 272 271 271 271 271 270 269 269 268 268 268 268 269 270 270 270 271 272 272 272 272 272 271 271 272 272 271 271 271 271 271 270 268 266 264 264 265 267 270 270 270 271 274 275 274 272 272 273 274 274 275 275 275 273 271 270 269 269 269 269 270 270 270 271 273 273 271 269 267 266 266 265 264 262 262 262
Height
5881 5882 5882 5882 5882 5882 5882 5882 5882 5883 5883 5883 5883 5883 5883 5883 5883 5883 5883 5883 5883 5883 5883 5883 5883 5882 5882 5882 5882 5882 5881 5881 5881 5881 5881 5881 5880 5880 5880 5879 5879 5878 5878 5877 5877 5876 5876 5875 5874 5874 5873 5873 5872 5871 5871 5870 5869 5869 5868 5868 5867 5866 5866 5866 5865 5865 5864 5863 5862 5862 5861 5861 5860 5859 5859 5859 5858 5858 5858 5856 5855 5856 5855 5855 5853 5852 5852 5852
5879 5880 5880 5880 5880 5880 5880 5880 5880 5880 5881 5881 5881 5881 5881 5881 5881 5881 5881 5881 5881 5881 5881 5880 5880 5880 5880 5880 5880 5880 5879 5879 5879 5879 5879 5879 5878 5878 5878 5877 5877 5876 5876 5875 5875 5874 5874 5873 5872 5872 5871 5870 5870 5869 5869 5868 5867 5867 5867 5867 5864 5863 5864 5863 5862 5862 5861 5861 5860 5859 5858 5858 5858 5857 5857 5857 5856 5855 5855 5854 5853 5854 5853 5853 5852 5851 5850 5850
5877 5878 5878 5878 5878 5878 5878 5878 5878 5878 5878 5879 5879 5879 5879 5879 5879 5879 5879 5879 5879 5878 5878 5878 5878 5878 5878 5878 5878 5878 5877 5877 5876 5876 5877 5876 5876 5875 5875 5875 5874 5874 5873 5873 5872 5872 5871 5871 5870 5869 5869 5868 5867 5866 5866 5865 5864 5865 5865 5865 5862 5860 5862 5861 5859 5859 5858 5858 5858 5856 5855 5855 5855 5855 5855 5854 5854 5852 5851 5850 5850 5851 5850 5850 5850 5849 5848 5847
5875 5875 5875 5875 5875 5875 5876 5876 5876 5876 5876 5876 5876 5876 5876 5876 5877 5877 5877 5876 5876 5876 5876 5875 5875 5875 5875 5875 5875 5875 5875 5874 5873 5874 5874 5874 5873 5873 5872 5872 5872 5871 5871 5870 5870 5869 5869 5868 5868 5866 5866 5865 5864 5863 5863 5861 5861 5862 5862 5862 5859 5857 5860 5858 5855 5856 5855 5854 5854 5853 5852 5852 5852 5852 5852 5851 5852 5850 5847 5847 5847 5847 5847 5846 5847 5847 5846 5844
5872 5873 5873 5873 5873 5873 5873 5873 5873 5873 5874 5874 5873 5873 5873 5874 5874 5874 5874 5873 5873 5873 5873 5873 5873 5873 5872 5872 5873 5873 5873 5871 5870 5871 5871 5870 5870 5870 5869 5869 5869 5869 5868 5867 5867 5866 5866 5866 5865 5864 5863 5862 5861 5860 5859 5857 5857 5860 5860 5858 5856 5854 5857 5855 5851 5852 5852 5851 5851 5849 5849 5849 5849 5849 5849 5848 5849 5848 5844 5844 5844 5843 5843 5843 5843 5844 5843 5841
5869 5869 5870 5870 5870 5870 5870 5870 5871 5871 5871 5871 5870 5870 5870 5871 5871 5871 5871 5870 5871 5870 5870 5870 5870 5870 5870 5870 5870 5870 5870 5868 5867 5868 5868 5867 5867 5867 5866 5866 5866 5866 5865 5865 5864 5864 5863 5863 5862 5861 5860 5859 5858 5857 5856 5854 5854 5856 5857 5855 5853 5851 5853 5853 5849 5848 5848 5847 5847 5845 5845 5846 5845 5845 5846 5846 5846 5844 5841 5840 5841 5840 5839 5839 5840 5839 5839 5838
5866 5866 5866 5867 5867 5867 5867 5867 5868 5868 5868 5867 5867 5867 5868 5868 5868 5868 5868 5868 5868 5867 5867 5867 5867 5867 5867 5868 5868 5869 5869 5865 5864 5865 5865 5864 5864 5864 5864 5863 5863 5863 5862 5862 5861 5861 5860 5859 5859 5857 5857 5857 5856 5854 5853 5851 5850 5852 5853 5852 5849 5848 5849 5850 5847 5846 5844 5843 5842 5840 5841 5843 5841 5841 5843 5844 5843 5840 5837 5837 5837 5836 5835 5835 5836 5835 5835 5835
5863 5863 5863 5864 5864 5864 5864 5864 5865 5865 5864 5864 5864 5864 5865 5865 5865 5865 5865 5865 5865 5865 5864 5863 5864 5864 5864 5865 5865 5867 5867 5862 5861 5863 5863 5862 5861 5861 5861 5860 5860 5860 5859 5859 5858 5857 5857 5856 5855 5853 5854 5854 5852 5852 5850 5848 5847 5848 5849 5848 5847 5846 5846 5846 5845 5844 5841 5839 5838 5836 5837 5839 5837 5836 5840 5843 5840 5835 5832 5833 5833 5833 5832 5832 5832 5831 5831 5830
5859 5859 5860 5860 5861 5861 5861 5861 5861 5861 5861 5861 5861 5861 5861 5862 5862 5862 5862 5862 5861 5862 5861 5860 5860 5860 5861 5862 5863 5866 5864 5859 5859 5860 5859 5859 5858 5857 5857 5857 5857 5857 5856 5856 5855 5854 5853 5852 5851 5849 5849 5849 5849 5849 5847 5844 5844 5844 5844 5844 5844 5844 5843 5843 5842 5841 5838 5836 5835 5831 5833 5835 5834 5833 5838 5841 5836 5830 5829 5829 5829 5829 5829 5828 5828 5827 5826 5826
5855 5856 5856 5857 5857 5857 5858 5858 5858 5858 5858 5858 5858 5858 5858 5858 5858 5859 5859 5858 5858 5858 5858 5857 5857 5857 5858 5859 5861 5864 5861 5856 5857 5857 5856 5855 5854 5854 5854 5854 5854 5853 5853 5853 5852 5851 5850 5848 5847 5846 5844 5845 5845 5845 5843 5841 5841 5840 5839 5840 5841 5840 5841 5841 5839 5837 5834 5832 5831 5827 5827 5830 5830 5830 5835 5838 5832 5826 5826 5825 5825 5825 5825 5824 5823 5823 5822 5823
5852 5852 5853 5853 5853 5854 5854 5854 5855 5855 5855 5854 5854 5854 5855 5855 5855 5855 5855 5855 5855 5855 5854 5854 5854 5854 5855 5856 5859 5861 5857 5855 5855 5854 5853 5851 5851 5851 5851 5851 5851 5850 5849 5849 5848 5847 5846 5845 5843 5842 5840 5840 5842 5841 5840 5839 5837 5836 5835 5836 5838 5836 5837 5839 5836 5833 5830 5828 5827 5822 5820 5824 5827 5828 5832 5833 5828 5823 5821 5822 5823 5822 5821 5820 5819 5819 5818 5819
5848 5848 5849 5849 5849 5850 5851 5851 5851 5851 5851 5851 5851 5851 5851 5851 5852 5852 5852 5852 5851 5851 5851 5850 5850 5850 5850 5854 5857 5856 5854 5854 5853 5851 5849 5848 5848 5848 5848 5848 5848 5847 5846 5846 5845 5844 5843 5841 5839 5838 5836 5836 5838 5838 5836 5836 5833 5833 5831 5831 5834 5833 5833 5836 5832 5828 5826 5825 5824 5818 5812 5817 5824 5826 5828 5827 5823 5820 5817 5819 5819 5818 5818 5817 5816 5815 5815 5815
5845 5845 5845 5846 5846 5846 5847 5848 5848 5848 5848 5848 5847 5847 5847 5847 5848 5848 5848 5848 5847 5847 5847 5846 5845 5845 5845 5850 5854 5852 5851 5851 5850 5848 5845 5844 5845 5845 5845 5845 5844 5843 5843 5842 5841 5840 5839 5837 5835 5833 5833 5832 5835 5834 5833 5832 5830 5830 5827 5825 5829 5829 5830 5832 5828 5824 5824 5821 5820 5814 5805 5810 5821 5824 5824 5822 5818 5816 5814 5815 5815 5814 5814 5813 5813 5812 5811 5811
5842 5842 5842 5842 5842 5843 5843 5844 5844 5844 5844 5844 5844 5843 5843 5843 5843 5844 5844 5843 5843 5843 5842 5841 5841 5840 5840 5846 5850 5848 5847 5846 5845 5844 5841 5841 5842 5841 5842 5841 5841 5840 5839 5838 5837 5836 5834 5833 5830 5828 5829 5829 5831 5831 5829 5827 5826 5827 5824 5822 5824 5822 5824 5828 5824 5821 5822 5819 5816 5810 5800 5803 5815 5820 5820 5817 5813 5812 5810 5811 5812 5810 5810 5809 5809 5809 5808 5808
5838 5838 5838 5839 5839 5839 5839 5840 5840 5840 5840 5840 5840 5840 5839 5839 5839 5839 5839 5839 5839 5838 5838 5837 5837 5836 5835 5842 5846 5844 5844 5842 5840 5838 5837 5838 5837 5837 5838 5837 5836 5835 5834 5833 5832 5832 5830 5828 5825 5824 5825 5827 5827 5827 5824 5821 5822 5824 5819 5818 5819 5815 5815 5820 5821 5819 5819 5816 5812 5806 5797 5797 5807 5814 5817 5813 5809 5808 5806 5806 5808 5806 5806 5805 5805 5805 5805 5806
5834 5834 5834 5835 5835 5835 5835 5836 5836 5836 5836 5836 5836 5836 5835 5835 5835 5835 5835 5835 5834 5833 5833 5832 5833 5831 5830 5836 5841 5840 5839 5837 5835 5834 5833 5833 5833 5833 5833 5831 5831 5830 5830 5829 5828 5827 5826 5823 5820 5820 5821 5823 5825 5825 5819 5814 5819 5822 5815 5811 5812 5809 5807 5810 5817 5819 5816 5811 5806 5801 5794 5791 5799 5807 5810 5809 5806 5803 5800 5801 5803 5803 5803 5802 5801 5801 5802 5802
5830 5830 5830 5830 5831 5831 5831 5831 5832 5832 5832 5832 5832 5831 5831 5830 5831 5830 5830 5831 5830 5829 5828 5828 5829 5827 5825 5830 5834 5835 5835 5832 5831 5830 5829 5829 5829 5829 5828 5826 5825 5825 5824 5824 5823 5823 5821 5818 5815 5815 5817 5819 5822 5822 5813 5809 5815 5817 5811 5806 5803 5804 5803 5803 5810 5816 5814 5806 5799 5795 5789 5788 5794 5800 5802 5804 5803 5798 5795 5797 5798 5799 5799 5799 5799 5798 5798 5798
5825 5825 5826 5826 5826 5826 5826 5827 5827 5827 5827 5827 5827 5827 5826 5826 5826 5826 5826 5826 5825 5825 5824 5824 5824 5822 5822 5825 5827 5828 5828 5827 5827 5826 5825 5826 5825 5824 5822 5821 5820 5820 5819 5818 5819 5818 5816 5813 5810 5810 5812 5816 5820 5818 5808 5806 5810 5809 5806 5802 5798 5798 5799 5799 5804 5809 5808 5801 5795 5789 5784 5784 5788 5791 5795 5798 5799 5795 5793 5794 5795 5796 5796 5796 5795 5793 5794 5793
5820 5821 5821 5821 5822 5822 5822 5822 5822 5822 5823 5822 5822 5822 5822 5821 5820 5820 5821 5820 5820 5820 5819 5819 5820 5818 5817 5820 5821 5821 5821 5822 5822 5822 5822 5822 5821 5819 5817 5816 5815 5814 5813 5813 5814 5812 5810 5808 5805 5804 5809 5814 5815 5811 5804 5804 5804 5801 5799 5796 5794 5794 5794 5797 5800 5802 5800 5792 5788 5787 5781 5780 5782 5784 5789 5792 5793 5792 5791 5792 5792 5792 5791 5791 5789 5788 5789 5788
5815 5815 5816 5816 5817 5817 5817 5817 5817 5818 5818 5817 5817 5817 5817 5816 5816 5815 5815 5815 5815 5815 5814 5813 5814 5813 5814 5814 5814 5813 5814 5816 5816 5817 5818 5817 5816 5814 5812 5811 5810 5808 5808 5809 5807 5805 5805 5802 5799 5802 5808 5810 5807 5804 5801 5801 5799 5796 5793 5791 5790 5788 5789 5794 5795 5796 5796 5783 5778 5783 5778 5775 5778 5779 5783 5786 5786 5788 5790 5789 5787 5786 5785 5784 5783 5783 5784 5783
5810 5810 5810 5811 5811 5812 5812 5812 5812 5812 5813 5813 5812 5812 5812 5811 5811 5810 5810 5810 5810 5810 5809 5809 5807 5808 5810 5809 5807 5806 5807 5809 5811 5812 5812 5811 5810 5808 5807 5806 5804 5803 5804 5803 5800 5800 5800 5795 5795 5801 5805 5803 5800 5798 5798 5797 5794 5791 5789 5786 5785 5785 5785 5789 5789 5790 5790 5777 5770 5776 5772 5770 5775 5775 5777 5780 5780 5782 5785 5785 5783 5781 5779 5778 5779 5779 5779 5778
5804 5805 5805 5806 5806 5806 5807 5807 5807 5807 5807 5808 5808 5807 5806 5805 5805 5804 5803 5804 5806 5806 5804 5804 5803 5802 5803 5802 5801 5801 5801 5803 5806 5806 5805 5804 5803 5802 5801 5800 5799 5799 5798 5796 5796 5796 5793 5790 5793 5798 5797 5795 5794 5794 5793 5791 5789 5786 5785 5783 5780 5782 5781 5781 5783 5785 5782 5773 5767 5769 5765 5762 5768 5771 5772 5775 5777 5777 5778 5778 5778 5777 5775 5775 5775 5775 5774 5774
5798 5799 5799 5800 5800 5801 5801 5801 5802 5802 5802 5802 5802 5802 5801 5800 5800 5799 5797 5796 5799 5801 5800 5799 5798 5796 5796 5795 5795 5796 5796 5798 5799 5798 5798 5797 5796 5796 5795 5795 5794 5793 5792 5793 5794 5791 5786 5785 5790 5792 5790 5790 5789 5788 5786 5784 5784 5782 5782 5779 5776 5779 5778 5773 5775 5776 5774 5770 5765 5765 5759 5753 5760 5766 5768 5771 5773 5773 5772 5771 5772 5773 5773 5773 5772 5770 5769 5769
5792 5793 5793 5793 5794 5794 5795 5795 5796 5796 5796 5796 5796 5796 5796 5795 5794 5794 5793 5790 5789 5794 5796 5795 5792 5790 5790 5790 5791 5792 5792 5792 5791 5791 5791 5789 5789 5789 5789 5789 5788 5787 5788 5789 5788 5784 5781 5781 5785 5786 5785 5785 5783 5781 5780 5778 5778 5779 5777 5775 5773 5775 5774 5768 5766 5766 5765 5765 5763 5762 5754 5746 5751 5758 5762 5768 5770 5769 5767 5765 5767 5769 5769 5769 5768 5766 5764 5763
5786 5786 5787 5787 5787 5788 5788 5789 5790 5790 5790 5790 5790 5790 5789 5789 5789 5789 5788 5785 5782 5785 5787 5788 5788 5785 5785 5786 5787 5787 5787 5786 5785 5784 5784 5783 5783 5782 5783 5783 5782 5783 5783 5782 5781 5778 5777 5779 5780 5780 5779 5778 5776 5775 5774 5772 5772 5774 5772 5771 5770 5770 5768 5765 5763 5760 5757 5757 5758 5758 5751 5743 5744 5747 5753 5764 5766 5763 5761 5760 5763 5766 5764 5763 5764 5762 5760 5759
5779 5780 5780 5781 5780 5781 5782 5782 5783 5783 5784 5784 5783 5783 5783 5784 5784 5784 5783 5779 5776 5777 5777 5777 5781 5782 5782 5783 5783 5782 5781 5780 5780 5779 5778 5777 5777 5776 5776 5776 5776 5777 5776 5775 5774 5772 5773 5777 5776 5775 5773 5770 5769 5769 5770 5767 5766 5767 5766 5766 5767 5765 5762 5761 5759 5756 5753 5752 5751 5751 5748 5742 5739 5740 5746 5755 5757 5755 5755 5756 5758 5761 5759 5757 5758 5759 5756 5754
5773 5774 5774 5774 5774 5774 5775 5775 5775 5776 5777 5777 5777 5777 5778 5778 5778 5778 5778 5773 5769 5769 5767 5767 5772 5776 5779 5779 5778 5776 5775 5774 5774 5774 5773 5772 5771 5771 5770 5770 5771 5771 5770 5769 5767 5768 5770 5772 5771 5769 5767 5765 5764 5765 5764 5761 5758 5760 5761 5760 5759 5758 5757 5756 5754 5752 5750 5749 5746 5744 5742 5740 5737 5737 5740 5744 5746 5745 5747 5751 5752 5754 5754 5752 5751 5753 5752 5750
5767 5768 5768 5768 5768 5768 5768 5768 5768 5769 5770 5770 5771 5771 5771 5772 5772 5773 5772 5767 5762 5761 5760 5761 5765 5769 5772 5771 5770 5770 5769 5769 5768 5766 5767 5766 5765 5765 5764 5765 5765 5764 5764 5763 5763 5765 5765 5764 5764 5762 5761 5760 5761 5760 5758 5754 5753 5755 5755 5752 5751 5751 5751 5750 5749 5748 5746 5744 5741 5738 5738 5737 5737 5738 5736 5734 5734 5734 5738 5743 5745 5745 5747 5747 5746 5745 5746 5746
5761 5762 5762 5762 5762 5762 5762 5762 5761 5762 5763 5763 5763 5763 5764 5765 5765 5767 5765 5761 5756 5754 5755 5757 5758 5760 5762 5761 5762 5762 5762 5762 5761 5760 5760 5759 5759 5759 5758 5758 5758 5758 5758 5757 5758 5761 5759 5758 5757 5755 5755 5756 5755 5753 5752 5750 5749 5749 5748 5747 5746 5744 5743 5743 5742 5742 5739 5738 5736 5733 5734 5733 5734 5738 5736 5729 5727 5728 5731 5734 5737 5737 5738 5739 5739 5738 5738 5739
5756 5756 5756 5756 5757 5757 5756 5756 5755 5756 5756 5756 5756 5756 5757 5757 5759 5759 5756 5753 5751 5750 5752 5752 5750 5751 5752 5753 5753 5753 5753 5754 5754 5754 5753 5753 5753 5752 5751 5752 5751 5752 5752 5751 5752 5755 5754 5752 5752 5751 5750 5750 5748 5747 5746 5746 5744 5744 5743 5741 5740 5738 5737 5735 5734 5734 5730 5730 5733 5730 5730 5731 5731 5734 5733 5728 5725 5724 5725 5728 5729 5729 5729 5729 5731 5732 5732 5731
5750 5750 5749 5750 5751 5751 5751 5750 5748 5750 5749 5749 5749 5749 5750 5750 5751 5749 5747 5748 5747 5746 5748 5746 5742 5744 5744 5745 5746 5745 5745 5746 5747 5747 5747 5747 5747 5746 5745 5745 5744 5744 5744 5744 5745 5747 5747 5746 5746 5747 5745 5744 5742 5741 5741 5740 5739 5738 5737 5736 5733 5731 5731 5728 5727 5726 5721 5724 5731 5727 5725 5728 5728 5729 5727 5725 5723 5721 5721 5721 5721 5721 5722 5721 5721 5721 5724 5726
5743 5743 5743 5743 5744 5745 5745 5744 5742 5743 5743 5743 5743 5743 5744 5743 5742 5742 5743 5744 5740 5738 5742 5740 5737 5738 5736 5737 5740 5739 5738 5738 5738 5739 5740 5740 5741 5740 5739 5737 5736 5735 5735 5736 5736 5737 5739 5739 5739 5739 5739 5738 5736 5734 5734 5734 5733 5732 5731 5730 5726 5724 5724 5721 5720 5718 5715 5721 5727 5723 5719 5720 5721 5724 5723 5722 5722 5722 5720 5716 5713 5714 5714 5714 5713 5711 5712 5716
5735 5736 5736 5736 5737 5737 5737 5737 5736 5736 5737 5737 5736 5736 5736 5734 5736 5739 5739 5738 5734 5732 5735 5734 5732 5732 5731 5732 5733 5732 5732 5731 5730 5730 5730 5732 5733 5734 5734 5732 5732 5729 5728 5729 5729 5728 5731 5733 5732 5730 5731 5732 5730 5728 5728 5727 5727 5725 5724 5722 5718 5718 5716 5711 5713 5712 5711 5718 5720 5715 5710 5708 5711 5717 5719 5719 5720 5720 5718 5715 5711 5709 5707 5706 5706 5706 5704 5703
5728 5729 5729 5729 5730 5729 5730 5730 5730 5730 5729 5729 5729 5728 5726 5726 5732 5735 5733 5732 5729 5727 5729 5728 5727 5727 5726 5727 5726 5725 5725 5722 5722 5723 5722 5723 5724 5726 5727 5727 5727 5725 5723 5723 5723 5723 5722 5725 5728 5723 5723 5726 5725 5723 5721 5719 5718 5717 5718 5714 5710 5712 5709 5704 5706 5705 5704 5707 5707 5703 5699 5699 5706 5711 5711 5713 5714 5714 5712 5712 5710 5707 5705 5701 5699 5699 5698 5697
5721 5722 5722 5723 5723 5723 5724 5723 5723 5722 5720 5720 5720 5718 5718 5722 5727 5728 5726 5726 5723 5721 5722 5722 5722 5720 5720 5720 5719 5719 5717 5714 5714 5714 5714 5715 5715 5717 5719 5719 5719 5718 5716 5714 5715 5715 5711 5716 5724 5717 5714 5718 5718 5716 5714 5711 5710 5710 5710 5706 5704 5708 5705 5697 5695 5697 5696 5693 5693 5694 5690 5692 5701 5704 5705 5706 5706 5706 5705 5704 5705 5703 5702 5700 5697 5696 5693 5691
5715 5715 5715 5717 5717 5717 5716 5715 5715 5713 5711 5711 5708 5707 5713 5718 5720 5719 5719 5719 5717 5716 5715 5714 5715 5715 5713 5713 5713 5712 5710 5706 5705 5704 5705 5707 5706 5709 5711 5711 5710 5709 5708 5706 5705 5705 5701 5706 5716 5711 5706 5708 5707 5707 5707 5704 5702 5701 5701 5701 5701 5701 5697 5689 5684 5687 5688 5678 5679 5687 5684 5686 5693 5694 5699 5701 5699 5700 5699 5697 5698 5695 5693 5693 5694 5695 5691 5686
5707 5708 5709 5711 5711 5709 5709 5708 5706 5703 5701 5701 5698 5700 5708 5712 5712 5712 5711 5711 5710 5708 5707 5705 5706 5707 5706 5706 5707 5708 5703 5699 5698 5697 5697 5698 5696 5700 5703 5702 5702 5701 5701 5698 5694 5695 5692 5694 5705 5708 5701 5698 5698 5698 5698 5697 5695 5692 5693 5697 5696 5690 5687 5685 5675 5675 5676 5667 5667 5676 5677 5681 5685 5685 5693 5697 5695 5696 5694 5691 5689 5687 5686 5687 5687 5687 5683 5680
5699 5699 5701 5705 5703 5701 5701 5699 5696 5695 5692 5689 5690 5696 5701 5704 5706 5706 5703 5703 5702 5699 5698 5696 5696 5697 5697 5698 5700 5701 5696 5691 5690 5689 5689 5689 5687 5690 5694 5693 5693 5693 5693 5690 5684 5685 5684 5679 5688 5701 5697 5688 5688 5690 5689 5689 5688 5685 5684 5688 5688 5681 5679 5679 5670 5664 5664 5659 5656 5661 5665 5670 5676 5681 5690 5692 5692 5691 5687 5683 5680 5677 5679 5680 5678 5677 5674 5673
5690 5690 5694 5698 5694 5691 5692 5690 5687 5686 5682 5680 5683 5689 5693 5696 5699 5698 5695 5694 5692 5690 5688 5688 5688 5686 5687 5690 5692 5691 5689 5686 5683 5681 5681 5681 5679 5681 5684 5684 5685 5685 5685 5682 5676 5675 5676 5668 5669 5686 5690 5679 5678 5681 5682 5683 5682 5677 5674 5675 5676 5674 5671 5669 5663 5658 5656 5650 5646 5647 5648 5653 5665 5677 5684 5686 5687 5684 5678 5675 5671 5670 5672 5671 5668 5668 5667 5666
5681 5680 5686 5691 5685 5681 5683 5681 5677 5676 5673 5674 5678 5681 5683 5685 5689 5690 5689 5685 5683 5681 5679 5679 5679 5677 5678 5682 5682 5681 5681 5677 5676 5675 5673 5673 5674 5675 5677 5678 5678 5678 5675 5672 5668 5665 5666 5659 5654 5666 5675 5671 5670 5674 5675 5675 5672 5667 5664 5663 5664 5664 5662 5657 5651 5651 5651 5643 5638 5636 5630 5634 5651 5666 5674 5678 5680 5677 5672 5668 5664 5663 5663 5660 5660 5660 5659 5659
5672 5672 5679 5682 5675 5673 5674 5669 5667 5668 5666 5667 5672 5673 5673 5675 5678 5682 5680 5675 5672 5671 5670 5669 5669 5669 5670 5672 5672 5673 5670 5666 5667 5666 5663 5666 5668 5668 5671 5673 5672 5670 5666 5663 5660 5658 5656 5651 5645 5649 5656 5660 5665 5669 5667 5663 5661 5658 5653 5652 5654 5654 5652 5646 5638 5643 5646 5636 5631 5627 5618 5620 5636 5654 5665 5669 5668 5666 5665 5661 5658 5657 5654 5650 5652 5652 5650 5650
5663 5664 5670 5670 5665 5664 5663 5657 5658 5659 5656 5659 5666 5666 5665 5666 5669 5671 5669 5666 5662 5661 5660 5659 5660 5661 5661 5661 5663 5662 5658 5654 5656 5657 5655 5658 5660 5661 5665 5667 5663 5660 5658 5653 5651 5651 5648 5642 5637 5635 5638 5645 5653 5660 5659 5653 5651 5649 5643 5643 5646 5644 5642 5637 5629 5633 5636 5628 5625 5621 5609 5607 5623 5643 5655 5657 5657 5655 5653 5652 5651 5649 5646 5642 5642 5641 5640 5639
5655 5657 5660 5659 5655 5655 5652 5647 5651 5652 5649 5653 5658 5657 5655 5656 5658 5661 5661 5657 5653 5652 5651 5650 5651 5651 5650 5652 5652 5650 5649 5645 5645 5648 5649 5647 5650 5655 5659 5659 5654 5652 5648 5644 5643 5643 5639 5634 5630 5627 5627 5631 5638 5647 5651 5648 5643 5637 5635 5639 5638 5634 5634 5630 5623 5625 5622 5615 5618 5613 5598 5598 5614 5632 5641 5644 5645 5644 5642 5643 5642 5638 5636 5634 5631 5630 5628 5626
5646 5647 5650 5649 5646 5644 5641 5640 5644 5644 5643 5645 5646 5645 5646 5646 5648 5653 5653 5649 5645 5643 5642 5640 5641 5641 5641 5642 5640 5640 5640 5636 5633 5639 5641 5638 5641 5647 5650 5648 5645 5644 5641 5637 5636 5633 5629 5626 5624 5619 5617 5618 5624 5633 5640 5643 5639 5629 5627 5633 5631 5627 5627 5622 5617 5617 5607 5604 5612 5602 5587 5594 5610 5619 5626 5631 5634 5634 5635 5636 5631 5626 5626 5624 5619 5616 5615 5613
5635 5637 5639 5639 5636 5633 5633 5635 5636 5633 5634 5636 5635 5635 5637 5636 5640 5645 5644 5639 5636 5635 5632 5630 5631 5632 5631 5631 5630 5630 5631 5628 5624 5627 5631 5631 5632 5636 5639 5638 5635 5635 5634 5630 5628 5623 5618 5618 5617 5612 5607 5607 5611 5618 5626 5631 5628 5620 5618 5622 5622 5622 5620 5614 5611 5606 5595 5596 5602 5591 5580 5591 5603 5607 5612 5618 5622 5624 5627 5629 5624 5617 5613 5611 5606 5600 5598 5598
5625 5626 5628 5628 5625 5623 5625 5629 5627 5623 5625 5627 5624 5625 5628 5627 5631 5635 5632 5629 5628 5627 5623 5619 5621 5622 5621 5622 5622 5620 5621 5622 5618 5616 5619 5622 5623 5624 5627 5627 5626 5626 5625 5623 5621 5615 5608 5606 5608 5605 5599 5600 5602 5606 5613 5615 5610 5607 5608 5609 5610 5611 5610 5607 5601 5593 5590 5590 5585 5582 5583 5584 5589 5597 5600 5604 5608 5610 5614 5618 5614 5605 5597 5595 5592 5588 5588 5590
5615 5616 5618 5617 5614 5613 5617 5620 5619 5615 5616 5616 5613 5614 5618 5620 5621 5622 5621 5621 5620 5618 5614 5610 5612 5613 5611 5612 5612 5608 5610 5613 5610 5608 5609 5611 5613 5614 5615 5616 5615 5615 5615 5613 5611 5608 5599 5594 5599 5598 5592 5592 5595 5596 5601 5601 5595 5594 5596 5596 5598 5599 5599 5597 5589 5585 5589 5580 5567 5575 5583 5575 5576 5588 5591 5590 5593 5594 5596 5599 5597 5590 5586 5585 5585 5583 5584 5585
5606 5607 5607 5605 5604 5606 5608 5610 5610 5607 5605 5605 5603 5603 5607 5610 5610 5611 5613 5612 5610 5609 5605 5601 5603 5604 5602 5603 5600 5596 5599 5601 5599 5600 5601 5599 5601 5603 5604 5606 5603 5602 5605 5604 5599 5597 5590 5584 5589 5590 5583 5583 5587 5586 5589 5588 5584 5585 5585 5584 5587 5588 5587 5585 5579 5579 5582 5568 5558 5569 5574 5566 5571 5579 5577 5575 5576 5577 5580 5582 5580 5579 5578 5578 5578 5576 5575 5573
5596 5597 5596 5593 5594 5599 5599 5598 5599 5598 5596 5596 5594 5593 5597 5599 5600 5601 5602 5599 5597 5599 5598 5592 5592 5594 5594 5594 5590 5587 5589 5590 5589 5591 5591 5589 5589 5590 5592 5595 5594 5591 5593 5592 5590 5588 5580 5574 5579 5580 5574 5572 5575 5577 5579 5577 5574 5574 5574 5574 5576 5576 5576 5574 5570 5571 5570 5560 5557 5563 5560 5558 5564 5563 5560 5560 5561 5564 5567 5568 5567 5568 5567 5567 5567 5565 5563 5562
5587 5587 5587 5584 5585 5590 5590 5587 5588 5588 5587 5587 5584 5585 5588 5589 5590 5592 5590 5586 5585 5588 5588 5583 5581 5583 5584 5584 5582 5579 5580 5581 5579 5580 5580 5579 5580 5579 5579 5582 5585 5584 5582 5581 5581 5579 5573 5566 5568 5570 5564 5561 5565 5568 5568 5567 5564 5561 5561 5565 5567 5566 5565 5564 5561 5561 5560 5553 5552 5553 5549 5547 5547 5545 5547 5550 5551 5553 5556 5556 5556 5556 5556 5557 5556 5555 5554 5553
5577 5576 5577 5576 5575 5579 5580 5577 5577 5576 5576 5579 5578 5577 5578 5578 5579 5581 5579 5577 5576 5576 5576 5574 5572 5573 5572 5572 5573 5571 5571 5572 5570 5569 5569 5568 5569 5570 5568 5570 5574 5574 5574 5574 5571 5569 5566 5560 5560 5561 5552 5550 5559 5560 5557 5557 5554 5548 5550 5556 5560 5558 5555 5552 5552 5552 5549 5544 5542 5542 5538 5533 5531 5534 5539 5541 5541 5543 5545 5545 5545 5544 5545 5546 5545 5544 5545 5543
5567 5565 5566 5566 5565 5570 5570 5567 5567 5566 5565 5570 5570 5567 5567 5568 5568 5569 5568 5566 5566 5566 5566 5564 5563 5562 5562 5562 5563 5562 5561 5560 5559 5558 5558 5557 5559 5561 5559 5560 5563 5563 5564 5566 5563 5562 5560 5553 5552 5552 5542 5540 5552 5554 5549 5546 5537 5533 5543 5551 5550 5549 5545 5542 5542 5541 5539 5535 5530 5528 5526 5524 5523 5525 5528 5530 5531 5532 5532 5532 5532 5532 5533 5533 5533 5533 5534 5533